Regional Weather Roundup
Issued by NWS

Home | Current Version | Previous Version | Graphics & Text | Print | Product List | Glossary On
Versions: 1 2 3 4 5 6 7 8 9 10 11 12 13 14 15 16 17 18 19 20 21 22 23 24 25 26 27 28 29 30 31 32 33 34 35 36 37 38 39 40 41 42 43 44 45 46 47 48 49 50
000
ASUS43 KLSX 261407
RWRMO

WEATHER SUMMARY FOR MISSOURI
NATIONAL WEATHER SERVICE SPRINGFIELD MO
900 AM CDT SAT JUL 26 2014

NOTE: "FAIR" INDICATES FEW OR NO CLOUDS BELOW 12,000 FEET WITH NO
       SIGNIFICANT WEATHER AND/OR OBSTRUCTIONS TO VISIBILITY.
       CURRENT SKY AND/OR WEATHER CONDITIONS ARE NOT AVAILABLE FOR
       CHILLICOTHE AND FARMINGTON.

MOZ001>031-035>038-043-044-053-054-261500-
...NORTHERN AND WESTERN MISSOURI...

CITY           SKY/WX    TMP DP  RH WIND       PRES   REMARKS
KANSAS CTY INT CLOUDY    79  71  76 MISG      29.83S
KANSAS C DTWN  PTSUNNY   84  69  60 SW13      29.82S
LEE`S SUMMIT   PTSUNNY   82  71  69 SW10      29.85R
ST JOSEPH      CLOUDY    80  72  76 S7        29.81S
CHILLICOTHE      N/A     81  73  76 S9        29.83R
KIRKSVILLE     PTSUNNY   78  73  84 SW7       29.85R

$$
MOZ066>068-077>081-088>096-101>105-261500-
...SOUTHWEST MISSOURI...

CITY           SKY/WX    TMP DP  RH WIND       PRES   REMARKS
SPRINGFIELD    MOSUNNY   81  71  71 SW17      29.97R
JOPLIN         SUNNY     82  71  69 SW18G25   29.96R

$$
MOZ032>034-039>042-045>050-055>058-069>072-261500-
...CENTRAL MISSOURI...

CITY           SKY/WX    TMP DP  RH WIND       PRES   REMARKS
COLUMBIA       CLOUDY    81  73  76 SW9       29.90R
JEFFERSON CITY PTSUNNY   82  72  71 SW5       29.88S
ROLLA          PTSUNNY   79  70  74 SW18G25   29.91S
SEDALIA        PTSUNNY   83  71  67 SW21G26   29.88R
WHITEMAN AFB   PTSUNNY   81  63  54 SW18      29.86R
OSAGE BEACH    PTSUNNY   82  70  65 SW10      29.91S

$$
MOZ051-052-059>065-261500-
...EAST CENTRAL MISSOURI...

CITY           SKY/WX    TMP DP  RH WIND       PRES   REMARKS
ST LOUIS INTL  MOSUNNY   81  71  71 SW10      29.90S
SPIRIT OF STL  PTSUNNY   80  71  74 W7        29.88R
ST CHARLES     SUNNY     79  71  76 SW8       29.87F

$$
MOZ072>076-082>087-097>100-106>115-261500-
...SOUTH CENTRAL AND SOUTHEAST MISSOURI...

CITY           SKY/WX    TMP DP  RH WIND       PRES   REMARKS
CAPE GIRARDEAU SUNNY     77  70  79 S8        29.97S
FARMINGTON     MOSUNNY   75  70  83 S8        29.96F
POPLAR BLUFF   MOSUNNY   76  69  79 SW7       29.97R
WEST PLAINS    MOSUNNY   79  72  79 SW10      30.01R

$$


USA.gov is the U.S. government's official web portal to all federal, state and local government web resources and services.